Regional Weather Roundup
Issued by NWS

Home | Current Version | Previous Version | Text Only | Print | Product List | Glossary On
Versions: 1 2 3 4 5 6 7 8 9 10 11 12 13 14 15 16 17 18 19 20 21 22 23 24 25 26 27 28 29 30 31 32 33 34 35 36 37 38 39 40 41 42 43 44 45 46 47 48 49 50
000
ASUS44 KMEG 031000
RWRTN
TENNESSEE HOURLY STATE WEATHER ROUNDUP
NATIONAL WEATHER SERVICE MEMPHIS TN
400 AM CST SAT DEC 03 2016

TNZ002-004-019-021-049-052-054-088>092-031100-
WEST TENNESSEE

CITY           SKY/WX    TMP DP  RH WIND       PRES   REMARKS
MEMPHIS INTL   CLOUDY    49  32  52 E8        30.30S
NWS MEMPHIS      N/A     46 N/A N/A MISG        N/A
JACKSON        CLOUDY    43  34  70 E7        30.32
DYERSBURG      CLOUDY   N/A N/A N/A E3        30.33S
PARIS          CLEAR     36  30  80 NE3       30.33S
$$

TNZ008-025-027-028-033-062-065-066-031100-
NORTH MIDDLE TENNESSEE

CITY           SKY/WX    TMP DP  RH WIND       PRES   REMARKS
NASHVILLE      CLOUDY    40  31  70 N3        30.34
CROSSVILLE     NOT AVBL
$$

TNZ061-075-076-078-094-096-097-031100-
SOUTH MIDDLE TENNESSEE

CITY           SKY/WX    TMP DP  RH WIND       PRES   REMARKS
$$

TNZ017-018-042-046-047-031100-
NORTHEAST TENNESSEE

CITY           SKY/WX    TMP DP  RH WIND       PRES   REMARKS
TRI CITIES     NOT AVBL
$$

TNZ012-013-036-069-073-074-031100-
CENTRAL EAST TENNESSEE

CITY           SKY/WX    TMP DP  RH WIND       PRES   REMARKS
KNOXVILLE      NOT AVBL
OAK RIDGE      MOCLDY    38  29  70 CALM      30.32R
GATLINBURG     CLEAR     27  27 100 CALM      30.28S
$$

TNZ083-085-099-031100-
SOUTHEAST TENNESSEE

CITY           SKY/WX    TMP DP  RH WIND       PRES   REMARKS
CHATTANOOGA    NOT AVBL
$$

SKY/WX REPORTED AS FAIR MEANS FEW OR NO CLOUDS BELOW
12 THOUSAND FEET.




USA.gov is the U.S. government's official web portal to all federal, state and local government web resources and services.